Granite Falls, MN

9:47 AM CST on December 14, 2019 (GMT -0600)
Granite Falls

Weather History for KGDB - October, 2019

Change the Weather History Date:

Thursday, October 31, 2019

  Actual Average (WUND) Record (WUND)
Temperature  
Mean Temperature 28 °F -  
Max Temperature 42 °F - - (-1)
Min Temperature 14 °F - - (-1)
Degree Days  
Heating Degree Days 37    
Moisture  
Dew Point 17 °F    
Average Humidity 67    
Maximum Humidity 92    
Minimum Humidity 30    
Precipitation  
Precipitation 0.00 in - - ()
Sea Level Pressure  
Sea Level Pressure 30.10 in    
Wind  
Wind Speed 5 mph (SW)    
Max Wind Speed 12 mph    
Max Gust Speed 17 mph    
Visibility 8 miles    
Events      
Averages and records for this station are not official NWS values.
T = Trace of Precipitation, MM = Missing Value Source: NWS Daily Summary

Daily Weather History Graph

Daily Weather History Graph

Search for Another Location

Airport or City:

Astronomy

Oct. 31, 2019 Rise Set
Actual Time 7:58 AM CDT 6:12 PM CDT
Civil Twilight 7:28 AM CDT 6:42 PM CDT
Nautical Twilight 6:53 AM CDT 7:17 PM CDT
Astronomical Twilight 6:19 AM CDT 7:51 PM CDT
Moon 11:55 AM CDT (10/31) 9:02 PM CDT (10/31)
Length of Visible Light 11h 14m
Length of Day
10h 13m
Waxing Crescent, 16% of the Moon is Illuminated
Oct 31
Waxing Crescent
Nov 4
First Quarter
Nov 12
Full
Nov 19
Last Quarter
Nov 26
New

Hourly Weather History & Observations

Time (CDT) Temp. Windchill Dew Point Humidity Pressure Visibility Wind Dir Wind Speed Gust Speed Precip Events Conditions
12:16 AM 20.1 °F - 17.2 °F 89% 30.21 in 10.0 mi Calm Calm - N/A   Clear
12:35 AM 19.6 °F 14.5 °F 16.9 °F 89% 30.21 in 10.0 mi WSW 3.5 mph - N/A   Clear
12:36 AM 19.6 °F 14.5 °F 16.9 °F 89% 30.21 in 10.0 mi WSW 3.5 mph - N/A   Clear
12:55 AM 18.3 °F 11.5 °F 16.0 °F 91% 30.21 in 7.0 mi WSW 4.6 mph - N/A   Clear
12:56 AM 18.3 °F 11.5 °F 15.8 °F 90% 30.21 in 7.0 mi WSW 4.6 mph - N/A   Clear
1:15 AM 18.3 °F 11.5 °F 16.0 °F 91% 30.21 in 10.0 mi WSW 4.6 mph - N/A   Clear
1:19 AM 18.3 °F 13.1 °F 15.6 °F 89% 30.21 in 10.0 mi WSW 3.5 mph - N/A   Clear
1:38 AM 18.1 °F 12.9 °F 15.4 °F 89% 30.21 in 7.0 mi SW 3.5 mph - N/A   Clear
1:55 AM 17.6 °F 12.3 °F 15.1 °F 90% 30.21 in 10.0 mi WSW 3.5 mph - N/A   Scattered Clouds
2:15 AM 18.1 °F - 15.6 °F 90% 30.20 in 10.0 mi Calm Calm - N/A   Mostly Cloudy
2:16 AM 18.1 °F 12.9 °F 15.8 °F 91% 30.20 in 10.0 mi WSW 3.5 mph - N/A   Mostly Cloudy
2:35 AM 17.8 °F 12.5 °F 15.6 °F 91% 30.20 in 10.0 mi West 3.5 mph - N/A   Mostly Cloudy
2:36 AM 17.8 °F 12.5 °F 15.6 °F 91% 30.20 in 10.0 mi West 3.5 mph - N/A   Mostly Cloudy
2:58 AM 19.9 °F 14.9 °F 17.8 °F 91% 30.19 in 10.0 mi West 3.5 mph - N/A   Overcast
3:17 AM 20.8 °F 16.0 °F 18.3 °F 90% 30.19 in 10.0 mi West 3.5 mph - N/A   Overcast
3:36 AM 20.3 °F 13.8 °F 17.6 °F 89% 30.19 in 10.0 mi West 4.6 mph - N/A   Scattered Clouds
3:55 AM 19.0 °F 12.3 °F 16.5 °F 90% 30.18 in 10.0 mi West 4.6 mph - N/A   Scattered Clouds
3:56 AM 19.0 °F 12.3 °F 16.5 °F 90% 30.18 in 10.0 mi West 4.6 mph - N/A   Scattered Clouds
4:15 AM 18.1 °F 11.3 °F 15.8 °F 91% 30.18 in 10.0 mi West 4.6 mph - N/A   Clear
4:19 AM 17.6 °F 10.7 °F 15.1 °F 90% 30.18 in 10.0 mi West 4.6 mph - N/A   Clear
4:37 AM 16.7 °F 9.6 °F 14.7 °F 92% 30.17 in 10.0 mi West 4.6 mph - N/A   Clear
4:56 AM 16.9 °F 9.8 °F 14.7 °F 91% 30.17 in 10.0 mi West 4.6 mph - N/A   Clear
5:15 AM 16.7 °F 9.6 °F 14.5 °F 91% 30.17 in 7.0 mi West 4.6 mph - N/A   Clear
5:16 AM 16.7 °F 9.6 °F 14.5 °F 91% 30.17 in 10.0 mi West 4.6 mph - N/A   Clear
5:35 AM 16.7 °F 9.6 °F 14.4 °F 91% 30.17 in 10.0 mi West 4.6 mph - N/A   Clear
5:36 AM 16.5 °F 9.4 °F 14.4 °F 91% 30.17 in 10.0 mi West 4.6 mph - N/A   Clear
5:59 AM 16.7 °F 9.6 °F 14.7 °F 92% 30.16 in 10.0 mi West 4.6 mph - N/A   Clear
6:16 AM 16.2 °F 10.6 °F 14.0 °F 91% 30.17 in 7.0 mi West 3.5 mph - N/A   Clear
6:36 AM 15.3 °F 9.6 °F 13.1 °F 91% 30.17 in 7.0 mi West 3.5 mph - N/A   Clear
6:55 AM 15.4 °F 8.1 °F 13.3 °F 91% 30.16 in 7.0 mi West 4.6 mph - N/A   Clear
6:56 AM 15.4 °F 8.1 °F 13.3 °F 91% 30.16 in 7.0 mi West 4.6 mph - N/A   Clear
7:15 AM 15.4 °F 8.1 °F 13.5 °F 92% 30.16 in 7.0 mi WSW 4.6 mph - N/A   Clear
7:38 AM 14.9 °F 9.2 °F 12.6 °F 90% 30.16 in 10.0 mi WSW 3.5 mph - N/A   Clear
7:55 AM 14.0 °F 6.5 °F 12.0 °F 92% 30.15 in 7.0 mi SW 4.6 mph - N/A   Clear
8:15 AM 14.7 °F 9.0 °F 12.6 °F 91% 30.16 in 7.0 mi WSW 3.5 mph - N/A   Clear
8:16 AM 14.7 °F 9.0 °F 12.4 °F 90% 30.16 in 7.0 mi WSW 3.5 mph - N/A   Clear
8:35 AM 16.0 °F 10.4 °F 14.0 °F 92% 30.15 in 7.0 mi SW 3.5 mph - N/A   Clear
8:36 AM 16.2 °F 10.6 °F 14.0 °F 91% 30.15 in 7.0 mi SW 3.5 mph - N/A   Clear
9:17 AM 21.7 °F 17.0 °F 19.0 °F 89% 30.16 in 7.0 mi WSW 3.5 mph - N/A   Clear
9:35 AM 23.9 °F - 20.8 °F 88% 30.15 in 7.0 mi Calm Calm - N/A   Clear
9:36 AM 23.9 °F - 20.8 °F 88% 30.15 in 7.0 mi Calm Calm - N/A   Clear
9:55 AM 26.4 °F 22.4 °F 22.5 °F 85% 30.15 in 7.0 mi WSW 3.5 mph - N/A   Clear
9:56 AM 26.6 °F 22.6 °F 22.5 °F 84% 30.15 in 7.0 mi WSW 3.5 mph - N/A   Clear
10:15 AM 28.2 °F 24.4 °F 22.6 °F 80% 30.15 in 5.0 mi WSW 3.5 mph - N/A   Haze
10:20 AM 28.4 °F 24.6 °F 22.8 °F 80% 30.14 in 7.0 mi WSW 3.5 mph - N/A   Clear
10:37 AM 29.8 °F - 22.1 °F 73% 30.14 in 5.0 mi Calm Calm - N/A   Haze
10:55 AM 31.1 °F 25.4 °F 22.3 °F 70% 30.14 in 5.0 mi WSW 5.8 mph - N/A   Haze
11:15 AM 32.0 °F 26.4 °F 22.3 °F 67% 30.13 in 7.0 mi WSW 5.8 mph - N/A   Clear
11:35 AM 32.9 °F 27.5 °F 22.3 °F 65% 30.13 in 10.0 mi WSW 5.8 mph - N/A   Clear
11:36 AM 33.1 °F 27.7 °F 22.5 °F 65% 30.13 in 10.0 mi WSW 5.8 mph - N/A   Clear
11:59 AM 34.3 °F 29.2 °F 21.7 °F 60% 30.11 in 7.0 mi WSW 5.8 mph - N/A   Clear
12:16 PM 35.1 °F 28.6 °F 20.8 °F 56% 30.11 in 7.0 mi WSW 8.1 mph - N/A   Clear
12:36 PM 36.5 °F 29.7 °F 19.2 °F 50% 30.10 in 7.0 mi West 9.2 mph - N/A   Clear
12:55 PM 36.9 °F 30.1 °F 19.6 °F 50% 30.09 in 10.0 mi West 9.2 mph - N/A   Clear
1:15 PM 38.1 °F 33.7 °F 19.0 °F 46% 30.08 in 5.0 mi WSW 5.8 mph - N/A   Haze
1:19 PM 37.9 °F 32.7 °F 19.0 °F 47% 30.08 in 7.0 mi West 6.9 mph - N/A   Clear
1:38 PM 39.2 °F 35.0 °F 19.9 °F 46% 30.07 in 7.0 mi WSW 5.8 mph - N/A   Clear
1:55 PM 40.1 °F 34.7 °F 19.9 °F 44% 30.06 in 7.0 mi West 8.1 mph - N/A   Clear
2:15 PM 40.1 °F 34.7 °F 17.6 °F 40% 30.05 in 10.0 mi West 8.1 mph - N/A   Clear
2:16 PM 40.3 °F 34.9 °F 17.6 °F 40% 30.05 in 7.0 mi West 8.1 mph - N/A   Clear
2:35 PM 41.2 °F 36.0 °F 16.0 °F 36% 30.05 in 10.0 mi SW 8.1 mph - N/A   Clear
2:57 PM 41.4 °F 35.7 °F 14.9 °F 34% 30.04 in 10.0 mi WSW 9.2 mph - N/A   Clear
3:16 PM 41.9 °F 35.9 °F 14.2 °F 33% 30.04 in 10.0 mi WSW 10.4 mph 17.3 mph N/A   Clear
3:35 PM 41.9 °F 35.9 °F 15.4 °F 34% 30.03 in 7.0 mi WSW 10.4 mph - N/A   Clear
3:36 PM 41.9 °F 36.3 °F 15.6 °F 35% 30.03 in 7.0 mi WSW 9.2 mph - N/A   Clear
3:55 PM 42.1 °F 36.6 °F 13.6 °F 32% 30.03 in 10.0 mi SW 9.2 mph - N/A   Clear
3:56 PM 42.1 °F 36.1 °F 13.6 °F 32% 30.03 in 10.0 mi WSW 10.4 mph - N/A   Clear
4:19 PM 41.9 °F 36.9 °F 12.4 °F 30% 30.02 in 10.0 mi SW 8.1 mph - N/A   Clear
4:36 PM 41.9 °F 35.9 °F 13.3 °F 31% 30.01 in 5.0 mi SSW 10.4 mph - N/A   Haze
4:55 PM 41.9 °F 35.9 °F 13.6 °F 32% 30.01 in 10.0 mi SSW 10.4 mph - N/A   Clear
4:56 PM 41.9 °F 35.4 °F 13.5 °F 32% 30.01 in 10.0 mi SW 11.5 mph - N/A   Clear
5:15 PM 41.0 °F 36.4 °F 14.0 °F 33% 30.01 in 4.0 mi SW 6.9 mph - N/A   Haze
5:16 PM 41.0 °F 37.1 °F 14.2 °F 34% 30.01 in 4.0 mi SW 5.8 mph - N/A   Haze
5:39 PM 39.7 °F 34.9 °F 14.2 °F 35% 30.01 in 4.0 mi SSW 6.9 mph - N/A   Haze
5:58 PM 36.9 °F 31.4 °F 14.4 °F 40% 30.01 in 10.0 mi SW 6.9 mph - N/A   Clear
6:15 PM 35.6 °F 29.9 °F 15.3 °F 43% 30.01 in 5.0 mi SSW 6.9 mph - N/A   Haze
6:35 PM 35.2 °F 29.5 °F 14.4 °F 42% 30.01 in 10.0 mi SSW 6.9 mph - N/A   Clear
6:36 PM 35.2 °F 29.5 °F 14.4 °F 42% 30.01 in 10.0 mi SSW 6.9 mph - N/A   Clear
6:55 PM 32.5 °F 26.2 °F 16.3 °F 51% 30.01 in 7.0 mi SSW 6.9 mph - N/A   Clear
6:56 PM 32.4 °F 26.0 °F 16.2 °F 51% 30.01 in 7.0 mi SSW 6.9 mph - N/A   Clear
7:18 PM 32.2 °F 24.4 °F 16.9 °F 53% 30.01 in 7.0 mi South 9.2 mph - N/A   Clear
7:36 PM 31.8 °F 24.6 °F 16.7 °F 54% 30.02 in 10.0 mi SSW 8.1 mph - N/A   Clear
7:55 PM 32.0 °F 24.8 °F 17.6 °F 55% 30.01 in 7.0 mi South 8.1 mph - N/A   Scattered Clouds
7:56 PM 32.0 °F 25.6 °F 17.6 °F 55% 30.01 in 7.0 mi South 6.9 mph - N/A   Mostly Cloudy
8:15 PM 33.1 °F 26.1 °F 18.5 °F 55% 30.01 in 7.0 mi South 8.1 mph - N/A   Overcast
8:16 PM 33.1 °F 26.9 °F 18.5 °F 55% 30.01 in 7.0 mi South 6.9 mph - N/A   Overcast
8:35 PM 34.0 °F 27.2 °F 20.1 °F 57% 30.00 in 7.0 mi South 8.1 mph - N/A   Overcast
8:40 PM 34.5 °F 27.9 °F 19.6 °F 54% 30.00 in 7.0 mi South 8.1 mph - N/A   Overcast
8:57 PM 35.2 °F 29.5 °F 19.4 °F 53% 30.00 in 7.0 mi South 6.9 mph - N/A   Overcast
9:15 PM 34.9 °F 28.3 °F 20.1 °F 55% 29.99 in 7.0 mi South 8.1 mph - N/A   Overcast
9:35 PM 34.7 °F 28.1 °F 20.1 °F 55% 29.98 in 7.0 mi South 8.1 mph - N/A   Overcast
9:56 PM 32.9 °F 25.9 °F 20.7 °F 61% 29.97 in 10.0 mi South 8.1 mph - N/A   Mostly Cloudy
10:18 PM 33.1 °F 25.5 °F 21.0 °F 61% 29.97 in 7.0 mi South 9.2 mph - N/A   Mostly Cloudy
10:37 PM 33.3 °F 26.4 °F 21.2 °F 61% 29.97 in 7.0 mi South 8.1 mph - N/A   Mostly Cloudy
10:56 PM 33.8 °F 27.0 °F 21.0 °F 60% 29.97 in 10.0 mi South 8.1 mph - N/A   Overcast
11:15 PM 34.0 °F 27.2 °F 21.2 °F 60% 29.96 in 7.0 mi South 8.1 mph - N/A   Overcast
11:16 PM 34.0 °F 26.6 °F 21.2 °F 60% 29.96 in 10.0 mi SSE 9.2 mph - N/A   Overcast
11:35 PM 34.2 °F 27.5 °F 21.9 °F 61% 29.96 in 10.0 mi South 8.1 mph - N/A   Overcast
11:57 PM 35.4 °F 30.5 °F 21.0 °F 56% 29.95 in 10.0 mi SSW 5.8 mph - N/A   Overcast